Location: Heisler
(52.6701°N, 112.2239°W)
Time: 13:28:53
(UTC+00:00)

Envisat - Pass Details

Date: 01 December 2021
Orbit: 764 x 766 km, 98.2° (Epoch: 26 January)

Event Time Altitude Azimuth Distance (km) Brightness Sun altitude
Rises 12:22:06 0° 17° (NNE) 3,248 6.4 -25.6°
Reaches altitude 10° 12:24:28 10° 21° (NNE) 2,317 5.7 -25.3°
Maximum altitude 12:29:30 59° 101° (E) 888 3.5 -24.5°
Drops below altitude 10° 12:34:30 10° 181° (S) 2,299 5.5 -23.7°
Sets 12:36:50 0° 185° (S) 3,221 6.3 -23.4°
